Year,Month,Day,Hour,Minute,Value (Times are PST for windgust in km/hr)
2010,09,23,00,01,1.60
2010,09,23,00,02,3.20
2010,09,23,00,03,3.20
2010,09,23,00,13,1.60
2010,09,23,00,14,1.60
2010,09,23,00,15,1.60
2010,09,23,00,29,1.60
2010,09,23,00,30,3.20
2010,09,23,00,31,1.60
2010,09,23,00,32,1.60
2010,09,23,00,33,3.20
2010,09,23,00,34,4.80
2010,09,23,00,35,1.60
2010,09,23,00,36,1.60
2010,09,23,00,37,3.20
2010,09,23,00,38,6.40
2010,09,23,00,40,3.20
2010,09,23,00,41,6.40
2010,09,23,00,42,4.80
2010,09,23,00,43,4.80
2010,09,23,00,44,4.80
2010,09,23,00,45,3.20
2010,09,23,00,46,1.60
2010,09,23,00,47,1.60
2010,09,23,00,48,8.10
2010,09,23,00,49,6.40
2010,09,23,00,51,3.20
2010,09,23,00,52,3.20
2010,09,23,00,53,3.20
2010,09,23,00,54,6.40
2010,09,23,00,55,6.40
2010,09,23,00,56,6.40
2010,09,23,00,57,9.60
2010,09,23,00,58,3.20
2010,09,23,00,59,1.60
2010,09,23,01,05,1.60
2010,09,23,01,06,3.20
2010,09,23,01,07,1.60
2010,09,23,01,08,3.20
2010,09,23,01,09,3.20
2010,09,23,01,10,1.60
2010,09,23,01,11,1.60
2010,09,23,01,12,1.60
2010,09,23,01,13,3.20
2010,09,23,01,14,4.80
2010,09,23,01,15,4.80
2010,09,23,01,16,3.20
2010,09,23,01,20,1.60
2010,09,23,01,21,1.60
2010,09,23,01,22,4.80
2010,09,23,01,23,3.20
2010,09,23,01,24,8.10
2010,09,23,01,25,6.40
2010,09,23,01,26,4.80
2010,09,23,01,28,3.20
2010,09,23,01,29,4.80
2010,09,23,01,30,6.40
2010,09,23,01,31,8.10
2010,09,23,01,32,8.10
2010,09,23,01,33,6.40
2010,09,23,01,34,6.40
2010,09,23,01,35,6.40
2010,09,23,01,36,1.60
2010,09,23,01,37,3.20
2010,09,23,01,38,4.80
2010,09,23,01,39,9.60
2010,09,23,01,40,8.10
2010,09,23,01,41,8.10
2010,09,23,01,42,12.90
2010,09,23,01,43,8.10
2010,09,23,01,44,8.10
2010,09,23,01,45,9.60
2010,09,23,01,46,9.60
2010,09,23,01,47,9.60
2010,09,23,01,48,14.50
2010,09,23,01,49,8.10
2010,09,23,01,50,6.40
2010,09,23,01,51,8.10
2010,09,23,01,52,6.40
2010,09,23,01,53,6.40
2010,09,23,01,54,1.60
2010,09,23,01,55,3.20
2010,09,23,01,56,3.20
2010,09,23,01,57,3.20
2010,09,23,01,58,3.20
2010,09,23,01,59,6.40
2010,09,23,02,00,3.20
2010,09,23,02,01,4.80
2010,09,23,02,02,3.20
2010,09,23,02,03,9.60
2010,09,23,02,04,8.10
2010,09,23,02,05,3.20
2010,09,23,02,06,14.50
2010,09,23,02,07,9.60
2010,09,23,02,08,6.40
2010,09,23,02,09,3.20
2010,09,23,02,10,8.10
2010,09,23,02,11,9.60
2010,09,23,02,12,6.40
2010,09,23,02,13,6.40
2010,09,23,02,14,6.40
2010,09,23,02,15,8.10
2010,09,23,02,16,9.60
2010,09,23,02,17,8.10
2010,09,23,02,18,8.10
2010,09,23,02,19,9.60
2010,09,23,02,20,8.10
2010,09,23,02,21,8.10
2010,09,23,02,22,6.40
2010,09,23,02,23,11.30
2010,09,23,02,24,14.50
2010,09,23,02,25,9.60
2010,09,23,02,26,8.10
2010,09,23,02,27,11.30
2010,09,23,02,28,9.60
2010,09,23,02,29,12.90
2010,09,23,02,30,14.50
2010,09,23,02,31,14.50
2010,09,23,02,32,9.60
2010,09,23,02,33,12.90
2010,09,23,02,34,4.80
2010,09,23,02,35,9.60
2010,09,23,02,36,8.10
2010,09,23,02,37,8.10
2010,09,23,02,38,9.60
2010,09,23,02,39,6.40
2010,09,23,02,40,9.60
2010,09,23,02,41,9.60
2010,09,23,02,42,3.20
2010,09,23,02,43,6.40
2010,09,23,02,44,6.40
2010,09,23,02,45,6.40
2010,09,23,02,46,6.40
2010,09,23,02,47,8.10
2010,09,23,02,48,9.60
2010,09,23,02,49,12.90
2010,09,23,02,50,12.90
2010,09,23,02,51,8.10
2010,09,23,02,52,16.10
2010,09,23,02,53,16.10
2010,09,23,02,54,14.50
2010,09,23,02,55,20.90
2010,09,23,02,56,19.30
2010,09,23,02,57,16.10
2010,09,23,02,58,16.10
2010,09,23,02,59,16.10
2010,09,23,03,00,16.10
2010,09,23,03,01,19.30
2010,09,23,03,02,16.10
2010,09,23,03,03,14.50
2010,09,23,03,04,19.30
2010,09,23,03,05,12.90
2010,09,23,03,06,19.30
2010,09,23,03,07,20.90
2010,09,23,03,08,14.50
2010,09,23,03,09,19.30
2010,09,23,03,10,20.90
2010,09,23,03,11,14.50
2010,09,23,03,12,16.10
2010,09,23,03,13,12.90
2010,09,23,03,14,9.60
2010,09,23,03,15,14.50
2010,09,23,03,16,11.30
2010,09,23,03,17,12.90
2010,09,23,03,18,8.10
2010,09,23,03,19,14.50
2010,09,23,03,20,22.50
2010,09,23,03,21,9.60
2010,09,23,03,22,9.60
2010,09,23,03,23,11.30
2010,09,23,03,24,11.30
2010,09,23,03,25,9.60
2010,09,23,03,26,12.90
2010,09,23,03,27,8.10
2010,09,23,03,28,8.10
2010,09,23,03,29,6.40
2010,09,23,03,30,6.40
2010,09,23,03,31,6.40
2010,09,23,03,32,6.40
2010,09,23,03,33,9.60
2010,09,23,03,34,4.80
2010,09,23,03,35,8.10
2010,09,23,03,36,8.10
2010,09,23,03,37,6.40
2010,09,23,03,38,6.40
2010,09,23,03,39,6.40
2010,09,23,03,40,6.40
2010,09,23,03,41,8.10
2010,09,23,03,42,9.60
2010,09,23,03,44,1.60
2010,09,23,03,45,4.80
2010,09,23,03,46,9.60
2010,09,23,03,47,9.60
2010,09,23,03,48,6.40
2010,09,23,03,49,3.20
2010,09,23,03,50,1.60
2010,09,23,03,52,8.10
2010,09,23,03,53,6.40
2010,09,23,03,54,6.40
2010,09,23,03,55,4.80
2010,09,23,03,56,3.20
2010,09,23,03,57,6.40
2010,09,23,03,58,6.40
2010,09,23,03,59,8.10
2010,09,23,04,00,3.20
2010,09,23,04,01,6.40
2010,09,23,04,02,3.20
2010,09,23,04,12,3.20
2010,09,23,04,13,3.20
2010,09,23,04,14,3.20
2010,09,23,04,15,3.20
2010,09,23,04,16,3.20
2010,09,23,04,17,1.60
2010,09,23,04,18,1.60
2010,09,23,04,24,1.60
2010,09,23,04,25,3.20
2010,09,23,04,26,3.20
2010,09,23,04,27,3.20
2010,09,23,04,28,3.20
2010,09,23,04,41,1.60
2010,09,23,04,42,3.20
2010,09,23,04,43,1.60
2010,09,23,04,44,1.60
2010,09,23,04,45,1.60
2010,09,23,04,46,3.20
2010,09,23,04,47,3.20
2010,09,23,04,48,6.40
2010,09,23,04,49,1.60
2010,09,23,04,54,1.60
2010,09,23,04,55,3.20
2010,09,23,04,56,1.60
2010,09,23,04,57,1.60
2010,09,23,04,59,1.60
2010,09,23,05,00,1.60
2010,09,23,05,01,1.60
2010,09,23,05,03,3.20
2010,09,23,05,04,3.20
2010,09,23,05,06,1.60
2010,09,23,05,07,1.60
2010,09,23,05,09,1.60
2010,09,23,05,14,1.60
2010,09,23,05,15,3.20
2010,09,23,05,16,3.20
2010,09,23,05,17,6.40
2010,09,23,05,18,3.20
2010,09,23,05,20,4.80
2010,09,23,05,21,3.20
2010,09,23,05,22,1.60
2010,09,23,05,23,1.60
2010,09,23,05,24,3.20
2010,09,23,05,25,4.80
2010,09,23,05,26,4.80
2010,09,23,05,27,9.60
2010,09,23,05,28,9.60
2010,09,23,05,29,9.60
2010,09,23,05,30,8.10
2010,09,23,05,31,4.80
2010,09,23,05,32,9.60
2010,09,23,05,33,6.40
2010,09,23,05,34,4.80
2010,09,23,05,35,4.80
2010,09,23,05,36,3.20
2010,09,23,05,38,1.60
2010,09,23,05,39,1.60
2010,09,23,05,40,1.60
2010,09,23,05,41,1.60
2010,09,23,05,47,3.20
2010,09,23,05,48,1.60
2010,09,23,05,49,1.60
2010,09,23,05,59,1.60
2010,09,23,06,00,3.20
2010,09,23,06,01,4.80
2010,09,23,06,02,4.80
2010,09,23,06,03,4.80
2010,09,23,06,04,3.20
2010,09,23,06,05,3.20
2010,09,23,06,06,3.20
2010,09,23,06,07,3.20
2010,09,23,06,08,1.60
2010,09,23,06,09,3.20
2010,09,23,06,10,3.20
2010,09,23,06,11,4.80
2010,09,23,06,12,3.20
2010,09,23,06,13,3.20
2010,09,23,06,14,1.60
2010,09,23,06,15,3.20
2010,09,23,06,16,3.20
2010,09,23,06,17,4.80
2010,09,23,06,18,3.20
2010,09,23,06,19,3.20
2010,09,23,06,20,1.60
2010,09,23,06,24,1.60
2010,09,23,06,25,1.60
2010,09,23,06,26,3.20
2010,09,23,06,27,3.20
2010,09,23,06,28,3.20
2010,09,23,06,29,4.80
2010,09,23,06,30,3.20
2010,09,23,06,31,4.80
2010,09,23,06,32,1.60
2010,09,23,06,33,3.20
2010,09,23,06,34,3.20
2010,09,23,06,35,3.20
2010,09,23,06,36,3.20
2010,09,23,06,37,4.80
2010,09,23,06,38,3.20
2010,09,23,06,40,4.80
2010,09,23,06,42,1.60
2010,09,23,06,43,1.60
2010,09,23,06,44,4.80
2010,09,23,06,45,3.20
2010,09,23,06,46,6.40
2010,09,23,06,47,6.40
2010,09,23,06,48,4.80
2010,09,23,06,49,4.80
2010,09,23,06,50,4.80
2010,09,23,06,51,6.40
2010,09,23,06,52,6.40
2010,09,23,06,53,4.80
2010,09,23,06,54,9.60
2010,09,23,06,55,11.30
2010,09,23,06,56,4.80
2010,09,23,06,57,4.80
2010,09,23,06,58,6.40
2010,09,23,06,59,9.60
2010,09,23,07,00,8.10
2010,09,23,07,01,9.60
2010,09,23,07,02,4.80
2010,09,23,07,03,4.80
2010,09,23,07,04,8.10
2010,09,23,07,05,9.60
2010,09,23,07,06,9.60
2010,09,23,07,07,8.10
2010,09,23,07,08,8.10
2010,09,23,07,09,9.60
2010,09,23,07,10,16.10
2010,09,23,07,11,16.10
2010,09,23,07,12,12.90
2010,09,23,07,13,8.10
2010,09,23,07,14,12.90
2010,09,23,07,15,9.60
2010,09,23,07,16,9.60
2010,09,23,07,17,9.60
2010,09,23,07,18,9.60
2010,09,23,07,19,11.30
2010,09,23,07,20,8.10
2010,09,23,07,21,14.50
2010,09,23,07,22,11.30
2010,09,23,07,23,12.90
2010,09,23,07,24,8.10
2010,09,23,07,25,12.90
2010,09,23,07,26,11.30
2010,09,23,07,27,9.60
2010,09,23,07,28,8.10
2010,09,23,07,29,8.10
2010,09,23,07,30,6.40
2010,09,23,07,31,8.10
2010,09,23,07,32,8.10
2010,09,23,07,33,11.30
2010,09,23,07,34,12.90
2010,09,23,07,35,16.10
2010,09,23,07,36,11.30
2010,09,23,07,37,9.60
2010,09,23,07,38,12.90
2010,09,23,07,39,6.40
2010,09,23,07,40,6.40
2010,09,23,07,41,16.10
2010,09,23,07,42,11.30
2010,09,23,07,43,11.30
2010,09,23,07,44,9.60
2010,09,23,07,45,6.40
2010,09,23,07,46,9.60
2010,09,23,07,47,11.30
2010,09,23,07,48,11.30
2010,09,23,07,49,9.60
2010,09,23,07,50,8.10
2010,09,23,07,51,8.10
2010,09,23,07,52,12.90
2010,09,23,07,53,9.60
2010,09,23,07,54,8.10
2010,09,23,07,55,8.10
2010,09,23,07,56,9.60
2010,09,23,07,57,14.50
2010,09,23,07,58,11.30
2010,09,23,07,59,12.90
2010,09,23,08,00,11.30
2010,09,23,08,01,11.30
2010,09,23,08,02,11.30
2010,09,23,08,03,6.40
2010,09,23,08,04,14.50
2010,09,23,08,05,12.90
2010,09,23,08,06,11.30
2010,09,23,08,07,14.50
2010,09,23,08,08,9.60
2010,09,23,08,09,14.50
2010,09,23,08,10,12.90
2010,09,23,08,11,11.30
2010,09,23,08,12,14.50
2010,09,23,08,13,14.50
2010,09,23,08,14,12.90
2010,09,23,08,15,20.90
2010,09,23,08,16,16.10
2010,09,23,08,17,12.90
2010,09,23,08,18,17.70
2010,09,23,08,19,8.10
2010,09,23,08,20,9.60
2010,09,23,08,21,17.70
2010,09,23,08,22,9.60
2010,09,23,08,23,14.50
2010,09,23,08,24,8.10
2010,09,23,08,25,11.30
2010,09,23,08,26,12.90
2010,09,23,08,27,11.30
2010,09,23,08,28,19.30
2010,09,23,08,29,17.70
2010,09,23,08,30,16.10
2010,09,23,08,31,14.50
2010,09,23,08,32,16.10
2010,09,23,08,33,16.10
2010,09,23,08,34,12.90
2010,09,23,08,35,14.50
2010,09,23,08,36,9.60
2010,09,23,08,37,16.10
2010,09,23,08,38,9.60
2010,09,23,08,39,16.10
2010,09,23,08,40,16.10
2010,09,23,08,41,14.50
2010,09,23,08,42,20.90
2010,09,23,08,43,29.00
2010,09,23,08,44,11.30
2010,09,23,08,45,19.30
2010,09,23,08,46,17.70
2010,09,23,08,47,17.70
2010,09,23,08,48,17.70
2010,09,23,08,49,14.50
2010,09,23,08,50,19.30
2010,09,23,08,51,14.50
2010,09,23,08,52,12.90
2010,09,23,08,53,11.30
2010,09,23,08,54,17.70
2010,09,23,08,55,14.50
2010,09,23,08,56,12.90
2010,09,23,08,57,12.90
2010,09,23,08,58,17.70
2010,09,23,08,59,12.90
2010,09,23,09,00,14.50
2010,09,23,09,01,16.10
2010,09,23,09,02,9.60
2010,09,23,09,03,16.10
2010,09,23,09,04,9.60
2010,09,23,09,05,20.90
2010,09,23,09,06,19.30
2010,09,23,09,07,27.40
2010,09,23,09,08,19.30
2010,09,23,09,09,17.70
2010,09,23,09,10,16.10
2010,09,23,09,11,22.50
2010,09,23,09,12,20.90
2010,09,23,09,13,20.90
2010,09,23,09,14,12.90
2010,09,23,09,15,19.30
2010,09,23,09,16,14.50
2010,09,23,09,17,16.10
2010,09,23,09,18,12.90
2010,09,23,09,19,17.70
2010,09,23,09,20,17.70
2010,09,23,09,21,17.70
2010,09,23,09,22,17.70
2010,09,23,09,23,16.10
2010,09,23,09,24,12.90
2010,09,23,09,25,12.90
2010,09,23,09,26,11.30
2010,09,23,09,27,14.50
2010,09,23,09,28,17.70
2010,09,23,09,29,17.70
2010,09,23,09,30,11.30
2010,09,23,09,31,9.60
2010,09,23,09,32,11.30
2010,09,23,09,33,9.60
2010,09,23,09,34,9.60
2010,09,23,09,35,9.60
2010,09,23,09,36,9.60
2010,09,23,09,37,9.60
2010,09,23,09,38,8.10
2010,09,23,09,39,11.30
2010,09,23,09,40,4.80
2010,09,23,09,41,14.50
2010,09,23,09,42,11.30
2010,09,23,09,43,12.90
2010,09,23,09,44,8.10
2010,09,23,09,45,12.90
2010,09,23,09,46,12.90
2010,09,23,09,47,16.10
2010,09,23,09,48,16.10
2010,09,23,09,49,12.90
2010,09,23,09,50,11.30
2010,09,23,09,51,12.90
2010,09,23,09,52,9.60
2010,09,23,09,53,12.90
2010,09,23,09,54,9.60
2010,09,23,09,55,6.40
2010,09,23,09,56,4.80
2010,09,23,09,57,8.10
2010,09,23,09,58,8.10
2010,09,23,09,59,9.60
2010,09,23,10,00,6.40
2010,09,23,10,01,6.40
2010,09,23,10,02,11.30
2010,09,23,10,03,3.20
2010,09,23,10,04,16.10
2010,09,23,10,05,9.60
2010,09,23,10,06,8.10
2010,09,23,10,07,6.40
2010,09,23,10,08,9.60
2010,09,23,10,09,9.60
2010,09,23,10,10,11.30
2010,09,23,10,11,8.10
2010,09,23,10,12,8.10
2010,09,23,10,13,6.40
2010,09,23,10,14,3.20
2010,09,23,10,15,1.60
2010,09,23,10,16,8.10
2010,09,23,10,17,3.20
2010,09,23,10,18,3.20
2010,09,23,10,19,6.40
2010,09,23,10,20,8.10
2010,09,23,10,21,9.60
2010,09,23,10,22,8.10
2010,09,23,10,23,11.30
2010,09,23,10,24,9.60
2010,09,23,10,25,6.40
2010,09,23,10,26,6.40
2010,09,23,10,27,3.20
2010,09,23,10,28,6.40
2010,09,23,10,29,6.40
2010,09,23,10,30,6.40
2010,09,23,10,31,8.10
2010,09,23,10,32,8.10
2010,09,23,10,33,9.60
2010,09,23,10,34,8.10
2010,09,23,10,35,8.10
2010,09,23,10,36,9.60
2010,09,23,10,37,9.60
2010,09,23,10,38,12.90
2010,09,23,10,39,9.60
2010,09,23,10,40,9.60
2010,09,23,10,41,11.30
2010,09,23,10,42,11.30
2010,09,23,10,43,3.20
2010,09,23,10,44,9.60
2010,09,23,10,45,14.50
2010,09,23,10,46,11.30
2010,09,23,10,47,9.60
2010,09,23,10,48,11.30
2010,09,23,10,49,8.10
2010,09,23,10,50,11.30
2010,09,23,10,51,9.60
2010,09,23,10,52,6.40
2010,09,23,10,53,11.30
2010,09,23,10,54,12.90
2010,09,23,10,55,8.10
2010,09,23,10,56,9.60
2010,09,23,10,57,9.60
2010,09,23,10,58,11.30
2010,09,23,10,59,14.50
2010,09,23,11,00,14.50
2010,09,23,11,01,9.60
2010,09,23,11,02,14.50
2010,09,23,11,03,16.10
2010,09,23,11,04,11.30
2010,09,23,11,05,11.30
2010,09,23,11,06,14.50
2010,09,23,11,07,9.60
2010,09,23,11,08,9.60
2010,09,23,11,09,9.60
2010,09,23,11,10,12.90
2010,09,23,11,11,9.60
2010,09,23,11,12,9.60
2010,09,23,11,13,9.60
2010,09,23,11,14,8.10
2010,09,23,11,15,8.10
2010,09,23,11,16,20.90
2010,09,23,11,17,14.50
2010,09,23,11,18,6.40
2010,09,23,11,19,6.40
2010,09,23,11,20,9.60
2010,09,23,11,21,9.60
2010,09,23,11,22,6.40
2010,09,23,11,23,6.40
2010,09,23,11,24,6.40
2010,09,23,11,25,14.50
2010,09,23,11,26,6.40
2010,09,23,11,27,8.10
2010,09,23,11,28,9.60
2010,09,23,11,29,12.90
2010,09,23,11,30,11.30
2010,09,23,11,31,11.30
2010,09,23,11,32,6.40
2010,09,23,11,33,8.10
2010,09,23,11,34,9.60
2010,09,23,11,35,6.40
2010,09,23,11,36,6.40
2010,09,23,11,37,6.40
2010,09,23,11,38,8.10
2010,09,23,11,39,14.50
2010,09,23,11,40,11.30
2010,09,23,11,41,8.10
2010,09,23,11,42,8.10
2010,09,23,11,43,6.40
2010,09,23,11,44,11.30
2010,09,23,11,45,11.30
2010,09,23,11,46,9.60
2010,09,23,11,47,12.90
2010,09,23,11,48,12.90
2010,09,23,11,49,12.90
2010,09,23,11,50,9.60
2010,09,23,11,51,8.10
2010,09,23,11,52,17.70
2010,09,23,11,53,22.50
2010,09,23,11,54,6.40
2010,09,23,11,55,12.90
2010,09,23,11,56,14.50
2010,09,23,11,57,9.60
2010,09,23,11,58,11.30
2010,09,23,11,59,14.50
2010,09,23,12,00,14.50
2010,09,23,12,01,8.10
2010,09,23,12,02,8.10
2010,09,23,12,03,11.30
2010,09,23,12,04,6.40
2010,09,23,12,05,8.10
2010,09,23,12,06,9.60
2010,09,23,12,07,9.60
2010,09,23,12,08,14.50
2010,09,23,12,09,8.10
2010,09,23,12,10,8.10
2010,09,23,12,11,6.40
2010,09,23,12,12,9.60
2010,09,23,12,13,8.10
2010,09,23,12,14,12.90
2010,09,23,12,15,9.60
2010,09,23,12,16,16.10
2010,09,23,12,17,14.50
2010,09,23,12,18,14.50
2010,09,23,12,19,12.90
2010,09,23,12,20,12.90
2010,09,23,12,21,16.10
2010,09,23,12,22,12.90
2010,09,23,12,23,12.90
2010,09,23,12,24,25.70
2010,09,23,12,25,12.90
2010,09,23,12,26,16.10
2010,09,23,12,27,19.30
2010,09,23,12,28,11.30
2010,09,23,12,29,11.30
2010,09,23,12,30,9.60
2010,09,23,12,31,9.60
2010,09,23,12,32,14.50
2010,09,23,12,33,3.20
2010,09,23,12,34,9.60
2010,09,23,12,35,9.60
2010,09,23,12,36,14.50
2010,09,23,12,37,11.30
2010,09,23,12,38,11.30
2010,09,23,12,39,8.10
2010,09,23,12,40,9.60
2010,09,23,12,41,19.30
2010,09,23,12,42,19.30
2010,09,23,12,43,12.90
2010,09,23,12,44,14.50
2010,09,23,12,45,20.90
2010,09,23,12,46,17.70
2010,09,23,12,47,9.60
2010,09,23,12,48,16.10
2010,09,23,12,49,9.60
2010,09,23,12,50,9.60
2010,09,23,12,51,6.40
2010,09,23,12,52,9.60
2010,09,23,12,53,16.10
2010,09,23,12,54,16.10
2010,09,23,12,55,14.50
2010,09,23,12,56,12.90
2010,09,23,12,57,11.30
2010,09,23,12,58,9.60
2010,09,23,12,59,12.90
2010,09,23,13,00,6.40
2010,09,23,13,01,9.60
2010,09,23,13,02,11.30
2010,09,23,13,03,14.50
2010,09,23,13,04,9.60
2010,09,23,13,05,11.30
2010,09,23,13,06,14.50
2010,09,23,13,07,8.10
2010,09,23,13,08,11.30
2010,09,23,13,09,8.10
2010,09,23,13,10,8.10
2010,09,23,13,11,3.20
2010,09,23,13,12,6.40
2010,09,23,13,13,3.20
2010,09,23,13,14,6.40
2010,09,23,13,15,11.30
2010,09,23,13,16,11.30
2010,09,23,13,17,6.40
2010,09,23,13,18,8.10
2010,09,23,13,19,1.60
2010,09,23,13,20,8.10
2010,09,23,13,21,8.10
2010,09,23,13,22,8.10
2010,09,23,13,23,9.60
2010,09,23,13,24,8.10
2010,09,23,13,25,6.40
2010,09,23,13,26,6.40
2010,09,23,13,27,11.30
2010,09,23,13,28,1.60
2010,09,23,13,29,9.60
2010,09,23,13,30,8.10
2010,09,23,13,31,9.60
2010,09,23,13,32,3.20
2010,09,23,13,33,6.40
2010,09,23,13,34,11.30
2010,09,23,13,35,8.10
2010,09,23,13,36,8.10
2010,09,23,13,37,6.40
2010,09,23,13,38,6.40
2010,09,23,13,39,3.20
2010,09,23,13,40,11.30
2010,09,23,13,41,9.60
2010,09,23,13,42,12.90
2010,09,23,13,43,6.40
2010,09,23,13,44,8.10
2010,09,23,13,45,9.60
2010,09,23,13,46,8.10
2010,09,23,13,47,3.20
2010,09,23,13,48,6.40
2010,09,23,13,49,8.10
2010,09,23,13,50,11.30
2010,09,23,13,51,9.60
2010,09,23,13,52,6.40
2010,09,23,13,53,3.20
2010,09,23,13,54,8.10
2010,09,23,13,55,9.60
2010,09,23,13,56,8.10
2010,09,23,13,57,8.10
2010,09,23,13,58,6.40
2010,09,23,13,59,9.60
2010,09,23,14,00,6.40
2010,09,23,14,01,9.60
2010,09,23,14,02,9.60
2010,09,23,14,03,6.40
2010,09,23,14,04,6.40
2010,09,23,14,05,4.80
2010,09,23,14,06,8.10
2010,09,23,14,07,9.60
2010,09,23,14,08,9.60
2010,09,23,14,09,6.40
2010,09,23,14,10,6.40
2010,09,23,14,11,11.30
2010,09,23,14,12,8.10
2010,09,23,14,13,11.30
2010,09,23,14,14,8.10
2010,09,23,14,15,11.30
2010,09,23,14,16,9.60
2010,09,23,14,17,12.90
2010,09,23,14,18,6.40
2010,09,23,14,19,8.10
2010,09,23,14,20,6.40
2010,09,23,14,21,6.40
2010,09,23,14,22,12.90
2010,09,23,14,23,3.20
2010,09,23,14,24,8.10
2010,09,23,14,25,9.60
2010,09,23,14,26,9.60
2010,09,23,14,27,12.90
2010,09,23,14,28,12.90
2010,09,23,14,29,11.30
2010,09,23,14,30,11.30
2010,09,23,14,31,11.30
2010,09,23,14,32,8.10
2010,09,23,14,33,9.60
2010,09,23,14,34,12.90
2010,09,23,14,35,9.60
2010,09,23,14,36,11.30
2010,09,23,14,37,9.60
2010,09,23,14,38,11.30
2010,09,23,14,39,11.30
2010,09,23,14,40,11.30
2010,09,23,14,41,11.30
2010,09,23,14,42,9.60
2010,09,23,14,43,16.10
2010,09,23,14,44,9.60
2010,09,23,14,45,16.10
2010,09,23,14,46,14.50
2010,09,23,14,47,12.90
2010,09,23,14,48,14.50
2010,09,23,14,49,14.50
2010,09,23,14,50,14.50
2010,09,23,14,51,14.50
2010,09,23,14,52,16.10
2010,09,23,14,53,9.60
2010,09,23,14,54,12.90
2010,09,23,14,55,20.90
2010,09,23,14,56,12.90
2010,09,23,14,57,16.10
2010,09,23,14,58,11.30
2010,09,23,14,59,9.60
2010,09,23,15,00,6.40
2010,09,23,15,01,8.10
2010,09,23,15,02,8.10
2010,09,23,15,03,11.30
2010,09,23,15,04,12.90
2010,09,23,15,05,17.70
2010,09,23,15,06,11.30
2010,09,23,15,07,9.60
2010,09,23,15,08,9.60
2010,09,23,15,09,8.10
2010,09,23,15,10,6.40
2010,09,23,15,11,6.40
2010,09,23,15,12,8.10
2010,09,23,15,13,8.10
2010,09,23,15,14,14.50
2010,09,23,15,15,12.90
2010,09,23,15,16,12.90
2010,09,23,15,17,14.50
2010,09,23,15,18,6.40
2010,09,23,15,19,11.30
2010,09,23,15,20,9.60
2010,09,23,15,21,9.60
2010,09,23,15,22,11.30
2010,09,23,15,23,11.30
2010,09,23,15,24,12.90
2010,09,23,15,25,12.90
2010,09,23,15,26,11.30
2010,09,23,15,27,17.70
2010,09,23,15,28,16.10
2010,09,23,15,29,9.60
2010,09,23,15,30,6.40
2010,09,23,15,31,16.10
2010,09,23,15,32,9.60
2010,09,23,15,33,17.70
2010,09,23,15,34,19.30
2010,09,23,15,35,12.90
2010,09,23,15,36,11.30
2010,09,23,15,37,11.30
2010,09,23,15,38,14.50
2010,09,23,15,39,6.40
2010,09,23,15,40,9.60
2010,09,23,15,41,16.10
2010,09,23,15,42,6.40
2010,09,23,15,43,8.10
2010,09,23,15,44,8.10
2010,09,23,15,45,8.10
2010,09,23,15,46,8.10
2010,09,23,15,47,6.40
2010,09,23,15,48,6.40
2010,09,23,15,49,8.10
2010,09,23,15,50,6.40
2010,09,23,15,51,9.60
2010,09,23,15,52,9.60
2010,09,23,15,53,6.40
2010,09,23,15,54,6.40
2010,09,23,15,55,8.10
2010,09,23,15,56,8.10
2010,09,23,15,57,6.40
2010,09,23,15,58,9.60
2010,09,23,15,59,8.10
2010,09,23,16,00,6.40
2010,09,23,16,01,6.40
2010,09,23,16,02,8.10
2010,09,23,16,03,1.60
2010,09,23,16,04,6.40
2010,09,23,16,05,4.80
2010,09,23,16,06,4.80
2010,09,23,16,07,3.20
2010,09,23,16,08,9.60
2010,09,23,16,09,6.40
2010,09,23,16,10,1.60
2010,09,23,16,11,3.20
2010,09,23,16,12,3.20
2010,09,23,16,13,6.40
2010,09,23,16,14,6.40
2010,09,23,16,15,6.40
2010,09,23,16,16,3.20
2010,09,23,16,17,1.60
2010,09,23,16,18,1.60
2010,09,23,16,19,3.20
2010,09,23,16,20,3.20
2010,09,23,16,22,3.20
2010,09,23,16,23,3.20
2010,09,23,16,24,3.20
2010,09,23,16,25,1.60
2010,09,23,16,26,3.20
2010,09,23,16,27,3.20
2010,09,23,16,28,6.40
2010,09,23,16,29,3.20
2010,09,23,16,30,6.40
2010,09,23,16,31,3.20
2010,09,23,16,32,3.20
2010,09,23,16,33,3.20
2010,09,23,16,34,6.40
2010,09,23,16,35,6.40
2010,09,23,16,36,6.40
2010,09,23,16,37,4.80
2010,09,23,16,38,8.10
2010,09,23,16,39,9.60
2010,09,23,16,40,9.60
2010,09,23,16,41,6.40
2010,09,23,16,42,12.90
2010,09,23,16,43,8.10
2010,09,23,16,44,6.40
2010,09,23,16,45,3.20
2010,09,23,16,46,3.20
2010,09,23,16,47,3.20
2010,09,23,16,48,6.40
2010,09,23,16,49,3.20
2010,09,23,16,50,3.20
2010,09,23,16,51,8.10
2010,09,23,16,52,6.40
2010,09,23,16,53,1.60
2010,09,23,16,54,3.20
2010,09,23,16,55,1.60
2010,09,23,16,56,3.20
2010,09,23,16,57,6.40
2010,09,23,16,58,9.60
2010,09,23,16,59,8.10
2010,09,23,17,00,6.40
2010,09,23,17,01,6.40
2010,09,23,17,02,6.40
2010,09,23,17,03,6.40
2010,09,23,17,04,8.10
2010,09,23,17,05,8.10
2010,09,23,17,06,3.20
2010,09,23,17,07,6.40
2010,09,23,17,08,8.10
2010,09,23,17,09,8.10
2010,09,23,17,10,11.30
2010,09,23,17,11,11.30
2010,09,23,17,12,8.10
2010,09,23,17,13,6.40
2010,09,23,17,14,6.40
2010,09,23,17,15,1.60
2010,09,23,17,16,3.20
2010,09,23,17,17,3.20
2010,09,23,17,19,1.60
2010,09,23,17,20,1.60
2010,09,23,17,21,3.20
2010,09,23,17,22,1.60
2010,09,23,17,23,8.10
2010,09,23,17,24,9.60
2010,09,23,17,25,9.60
2010,09,23,17,26,6.40
2010,09,23,17,27,9.60
2010,09,23,17,28,9.60
2010,09,23,17,29,8.10
2010,09,23,17,30,11.30
2010,09,23,17,31,8.10
2010,09,23,17,32,4.80
2010,09,23,17,33,11.30
2010,09,23,17,34,8.10
2010,09,23,17,35,6.40
2010,09,23,17,36,9.60
2010,09,23,17,37,8.10
2010,09,23,17,38,11.30
2010,09,23,17,39,9.60
2010,09,23,17,40,3.20
2010,09,23,17,41,8.10
2010,09,23,17,42,9.60
2010,09,23,17,43,8.10
2010,09,23,17,44,11.30
2010,09,23,17,45,11.30
2010,09,23,17,46,11.30
2010,09,23,17,47,11.30
2010,09,23,17,48,11.30
2010,09,23,17,49,4.80
2010,09,23,17,50,4.80
2010,09,23,17,51,6.40
2010,09,23,17,52,12.90
2010,09,23,17,53,12.90
2010,09,23,17,54,8.10
2010,09,23,17,55,8.10
2010,09,23,17,56,12.90
2010,09,23,17,57,11.30
2010,09,23,17,58,12.90
2010,09,23,17,59,8.10
2010,09,23,18,00,9.60
2010,09,23,18,01,9.60
2010,09,23,18,02,3.20
2010,09,23,18,03,12.90
2010,09,23,18,04,8.10
2010,09,23,18,05,8.10
2010,09,23,18,06,9.60
2010,09,23,18,07,4.80
2010,09,23,18,08,4.80
2010,09,23,18,09,6.40
2010,09,23,18,10,9.60
2010,09,23,18,11,9.60
2010,09,23,18,12,8.10
2010,09,23,18,13,8.10
2010,09,23,18,14,8.10
2010,09,23,18,15,6.40
2010,09,23,18,16,11.30
2010,09,23,18,17,6.40
2010,09,23,18,18,3.20
2010,09,23,18,19,6.40
2010,09,23,18,20,6.40
2010,09,23,18,21,6.40
2010,09,23,18,22,6.40
2010,09,23,18,23,9.60
2010,09,23,18,24,8.10
2010,09,23,18,25,8.10
2010,09,23,18,26,8.10
2010,09,23,18,27,6.40
2010,09,23,18,28,1.60
2010,09,23,18,29,1.60
2010,09,23,18,30,1.60
2010,09,23,18,31,1.60
2010,09,23,18,32,8.10
2010,09,23,18,33,6.40
2010,09,23,18,34,1.60
2010,09,23,18,35,1.60
2010,09,23,18,36,3.20
2010,09,23,18,37,4.80
2010,09,23,18,38,6.40
2010,09,23,18,39,6.40
2010,09,23,18,40,3.20
2010,09,23,18,41,3.20
2010,09,23,18,42,1.60
2010,09,23,18,43,3.20
2010,09,23,18,44,4.80
2010,09,23,18,45,3.20
2010,09,23,18,46,9.60
2010,09,23,18,47,8.10
2010,09,23,18,48,11.30
2010,09,23,18,49,6.40
2010,09,23,18,50,9.60
2010,09,23,18,51,11.30
2010,09,23,18,52,8.10
2010,09,23,18,53,11.30
2010,09,23,18,54,9.60
2010,09,23,18,55,3.20
2010,09,23,18,56,8.10
2010,09,23,18,57,14.50
2010,09,23,18,58,9.60
2010,09,23,18,59,8.10
2010,09,23,19,00,8.10
2010,09,23,19,01,12.90
2010,09,23,19,02,9.60
2010,09,23,19,03,11.30
2010,09,23,19,04,8.10
2010,09,23,19,05,14.50
2010,09,23,19,06,9.60
2010,09,23,19,07,12.90
2010,09,23,19,08,11.30
2010,09,23,19,09,14.50
2010,09,23,19,10,11.30
2010,09,23,19,11,14.50
2010,09,23,19,12,11.30
2010,09,23,19,13,9.60
2010,09,23,19,14,12.90
2010,09,23,19,15,14.50
2010,09,23,19,16,22.50
2010,09,23,19,17,12.90
2010,09,23,19,18,17.70
2010,09,23,19,19,11.30
2010,09,23,19,20,9.60
2010,09,23,19,21,14.50
2010,09,23,19,22,12.90
2010,09,23,19,23,20.90
2010,09,23,19,24,14.50
2010,09,23,19,25,20.90
2010,09,23,19,26,9.60
2010,09,23,19,27,17.70